Pensacola NAS, FL

10:31 PM CDT on May 26, 2017 (GMT -0500)
Pensacola Naval Air Station

Weather History for KNPA - April, 2013

Change the Weather History Date:

Monday, April 15, 2013

  Actual Average Record
Temperature  
Mean Temperature 70 °F -  
Max Temperature 75 °F 73 °F 86 °F (2001)
Min Temperature 66 °F 56 °F 41 °F (2008)
Cooling Degree Days 4    
Growing Degree Days 20 (Base 50)    
Moisture  
Dew Point 66 °F    
Average Humidity 91    
Maximum Humidity 100    
Minimum Humidity 78    
Precipitation  
Precipitation 0.00 in - - ()
Sea Level Pressure  
Sea Level Pressure 29.96 in    
Wind  
Wind Speed 6 mph (ESE)    
Max Wind Speed 13 mph    
Max Gust Speed -    
Visibility 8 miles    
Events      
Averages and records for this station are not official NWS values.
T = Trace of Precipitation, MM = Missing Value Source: NWS Daily Summary

Daily Weather History Graph

Daily Weather History Graph

Search for Another Location

Airport or City:

Trip Planner

Search our weather history database for the weather conditions in past years. The results will help you decide how hot, cold, wet, or windy it might be!

Date:

Astronomy

Apr. 15, 2013 Rise Set
Actual Time 6:21 AM CDT 7:17 PM CDT
Civil Twilight 5:57 AM CDT 7:41 PM CDT
Nautical Twilight 5:28 AM CDT 8:10 PM CDT
Astronomical Twilight 4:58 AM CDT 8:40 PM CDT
Moon 9:59 AM CDT (4/15) No Moon Set
Length of Visible Light 13h 44m
Length of Day
12h 55m
Waxing Crescent, 25% of the Moon is Illuminated
Apr 15
Waxing Crescent
Apr 18
First Quarter
Apr 25
Full
May 2
Last Quarter
May 9
New

Hourly Weather History & Observations

Time (CDT) Temp. Dew Point Humidity Pressure Visibility Wind Dir Wind Speed Gust Speed Precip Events Conditions
12:56 AM 66.9 °F 64.9 °F 93% 29.86 in 6.0 mi ENE 3.5 mph - N/A   Overcast
1:56 AM 66.9 °F 66.0 °F 97% 29.86 in 5.0 mi Calm Calm - N/A   Overcast
2:56 AM 66.9 °F 66.0 °F 97% 29.86 in 8.0 mi Calm Calm - N/A   Overcast
3:56 AM 66.9 °F 66.0 °F 97% 29.88 in 6.0 mi Calm Calm - N/A   Overcast
4:53 AM 66.2 °F 66.2 °F 100% 29.89 in 5.0 mi East 6.9 mph - 0.00 in   Overcast
4:56 AM 66.9 °F 66.9 °F 100% 29.89 in 5.0 mi East 6.9 mph - 0.00 in   Overcast
5:06 AM 66.2 °F 66.2 °F 100% 29.89 in 4.0 mi East 8.1 mph - N/A   Overcast
5:29 AM 66.2 °F 64.4 °F 94% 29.90 in 5.0 mi ENE 4.6 mph - N/A   Overcast
5:56 AM 66.0 °F 64.9 °F 96% 29.91 in 6.0 mi East 5.8 mph - N/A   Overcast
6:12 AM 66.2 °F 66.2 °F 100% 29.91 in 7.0 mi East 3.5 mph - N/A   Overcast
6:56 AM 66.0 °F 66.0 °F 100% 29.94 in 5.0 mi East 4.6 mph - N/A   Overcast
7:56 AM 66.9 °F 66.0 °F 97% 29.96 in 5.0 mi ENE 5.8 mph - N/A   Overcast
8:56 AM 68.0 °F 66.0 °F 93% 29.98 in 8.0 mi East 5.8 mph - N/A   Overcast
9:56 AM 69.1 °F 66.9 °F 93% 29.99 in 9.0 mi East 6.9 mph - N/A   Overcast
10:17 AM 69.8 °F 66.2 °F 88% 29.99 in 10.0 mi East 9.2 mph - N/A   Overcast
10:45 AM 69.8 °F 66.2 °F 88% 29.99 in 10.0 mi East 10.4 mph - N/A   Overcast
10:56 AM 70.0 °F 66.0 °F 87% 29.99 in 10.0 mi East 9.2 mph - N/A   Overcast
11:29 AM 71.6 °F 66.2 °F 83% 29.99 in 10.0 mi East 11.5 mph - N/A   Overcast
11:56 AM 72.0 °F 66.0 °F 81% 30.00 in 10.0 mi East 11.5 mph - N/A   Overcast
12:56 PM 73.0 °F 66.9 °F 81% 30.01 in 10.0 mi ESE 8.1 mph - N/A   Overcast
1:56 PM 73.0 °F 66.9 °F 81% 30.00 in 10.0 mi East 8.1 mph - N/A   Overcast
2:40 PM 73.4 °F 66.2 °F 78% 29.99 in 10.0 mi ESE 10.4 mph - N/A   Overcast
2:56 PM 73.0 °F 66.9 °F 81% 29.99 in 10.0 mi ESE 12.7 mph - N/A   Overcast
3:56 PM 73.9 °F 68.0 °F 82% 29.98 in 10.0 mi ESE 12.7 mph - N/A   Overcast
4:56 PM 71.1 °F 68.0 °F 90% 29.99 in 10.0 mi SE 9.2 mph - N/A   Mostly Cloudy
5:56 PM 72.0 °F 68.0 °F 87% 29.99 in 10.0 mi ESE 11.5 mph - N/A   Mostly Cloudy
6:56 PM 70.0 °F 68.0 °F 93% 30.00 in 10.0 mi SE 9.2 mph - N/A   Overcast
7:56 PM 70.0 °F 66.9 °F 90% 30.01 in 10.0 mi SE 9.2 mph - N/A   Mostly Cloudy
8:56 PM 70.0 °F 66.9 °F 90% 30.03 in 10.0 mi SE 6.9 mph - N/A   Overcast
9:56 PM 70.0 °F 66.9 °F 90% 30.05 in 10.0 mi ESE 6.9 mph - N/A   Mostly Cloudy
10:56 PM 70.0 °F 66.9 °F 90% 30.05 in 10.0 mi SE 5.8 mph - N/A   Mostly Cloudy
11:56 PM 70.0 °F 66.9 °F 90% 30.05 in 10.0 mi ESE 8.1 mph - N/A   Mostly Cloudy